Weather Roundup
Issued by NWS Chicago, IL

Home | Current Version | Previous Version | Graphics & Text | Print | Product List | Glossary On
Versions: 1 2 3 4 5 6 7 8 9 10 11 12 13 14 15 16 17 18 19 20 21 22 23 24 25 26 27 28 29 30 31 32 33 34 35 36 37 38 39 40 41 42 43 44 45 46 47 48 49 50
000
NZUS59 KLOT 250308
HRRLOT

CHICAGO AREA WEATHER ROUNDUP
NATIONAL WEATHER SERVICE CHICAGO/ROMEOVILLE IL
1000 PM CDT MON APR 24 2017

NOTE: "FAIR" INDICATES FEW OR NO CLOUDS BELOW 12,000 FEET WITH NO
SIGNIFICANT WEATHER AND/OR OBSTRUCTIONS TO VISIBILITY.

* THESE STATIONS ARE NOT UNDER NWS QUALITY CONTROL. THEY ALSO MAY NOT
  REPORT WEATHER SUCH AS PRECIPITATION OR FOG.

ILZ005-006-012>014-019>023-250400-
NORTHEAST ILLINOIS

CITY           SKY/WX    TMP DP  RH WIND       PRES   REMARKS
OHARE          PTCLDY    54  35  48 CALM      29.77S
MIDWAY         PTCLDY    59  39  47 E8        29.77S
AURORA         CLEAR     56  34  43 E9        29.77R
LANSING*       PTCLDY    57  42  58 E6        29.77S
JOLIET*        CLEAR     58  38  48 E6        29.76S
WAUKEGAN       CLEAR     45  36  70 CALM      29.79R
DUPAGE AIRPORT CLEAR     57  33  40 E3        29.76R
WHEELING       CLEAR     52  36  54 CALM      29.79S
KANKAKEE*      CLEAR     60  37  42 E10       29.76S
MORRIS*        CLEAR     62  35  37 CALM      29.74R
LEWIS AIRPORT* CLEAR     56  40  55 E7        29.76S
NORTHERLY ISL    N/A     55  41  59 SE5         N/A
$$

WIZ051-052-058>065-066-070>072-250400-
SOUTHEAST WISCONSIN

CITY           SKY/WX    TMP DP  RH WIND       PRES   REMARKS
MILWAUKEE      MOCLDY    51  32  48 CALM      29.79S
KENOSHA*       CLEAR     44  35  70 NE3       29.79R
RACINE*        CLEAR     51  33  50 SE3       29.80S
WEST BEND      CLOUDY    48  32  53 CALM      29.80S
$$

INZ001>003-010>013-019-020-250400-
NORTHWEST INDIANA

CITY           SKY/WX    TMP DP  RH WIND       PRES   REMARKS
GARY*          PTCLDY    63  32  31 E9        29.78S
MICHIGAN CITY* NOT AVBL
RENSSELAER*    NOT AVBL
VALPARAISO     CLEAR     58  38  47 E8        29.79F
$$

LMZ740>746-250400-
SOUTHERN LAKE MICHIGAN

STATION/POSITION TIME  SKY/WX   TEMP WIND        PRES    VSBY
                                AIR  DIR/SP/G
                 (UTC)          (F)  (DEG/KT/KT) (MB)    (MI)
HARRISON CRIB    0230            57  120/ 17/ 18   N/A
BURNHAM HARBOR   0300            56  110/  7/  7   N/A
CALUMET HARBOR   0248            58  100/  7/  9 1007.9S
BURNS HARBOR     0240            65  110/ 13/ 17 1008.8F
MICHIGAN CITY    0240            64  100/ 11/ 14   N/A
$$

ABBREVIATIONS USED IN REMARKS
   TC - TEMPERATURE IN CELSIUS
  WCI - WIND CHILL INDEX
   HX - HEAT INDEX
  VSB - VISIBILITY
$$



USA.gov is the U.S. government's official web portal to all federal, state and local government web resources and services.